AirNav   Duncan Aviation - Near you to keep you flying
 
 1608 users online  

62AL Skywest Airpark
Mobile, Alabama, USA

GOING TO MOBILE?


FAA INFORMATION EFFECTIVE 06 OCTOBER 2022

Location

FAA Identifier: 62AL
Lat/Long: 30-41-00.6880N 088-22-19.0400W
30-41.011467N 088-22.317333W
30.6835244,-88.3719556
(estimated)
Elevation: 150 ft. / 46 m (estimated)
Variation: 01E (1990)
From city: 18 miles W of MOBILE, AL
Time zone: UTC -5 (UTC -6 during Standard Time)
Zip code: 36608

Airport Operations

Airport use: Private use. Permission required prior to landing
Activation date: 05/1995
Control tower: no
ARTCC: HOUSTON CENTER
FSS: ANNISTON FLIGHT SERVICE STATION
Attendance: UNATNDD
Wind indicator: yes
Segmented circle: no

Airport Communications

WX ASOS at MOB (7 nm E): 124.75 (251-607-0469)
WX ASOS at PQL (16 nm SW): 135.175 (228-474-2836)
WX ASOS at BFM (16 nm E): PHONE 251-431-6762

Nearby radio navigation aids

VOR radial/distance  VOR name  Freq  Var
SJIr189/2.6SEMMES VORTAC115.3005E
BFMr281/16.9BROOKLEY VORTAC116.3504E
GCVr162/25.6GREENE COUNTY VORTAC115.7005E

 
NDB name  Hdg/Dist  Freq  Var  ID
WISLE218/5.824801WMOB -- --- -...

Airport Services

Runway Information

Runway 11/29

Dimensions: 2467 x 100 ft. / 752 x 30 m
Surface: turf, in good condition
Runway edge markings: 11/29 MKD WITH WHITE MARKERS SPACED 200 FT
RUNWAY 11  RUNWAY 29
Traffic pattern: leftleft
Obstructions: 29 ft. pole, 681 ft. from runway, 3 ft. left of centerline, 23:1 slope to clear17 ft. trees, 129 ft. from runway, 78 ft. right of centerline, 7:1 slope to clear

Airport Ownership and Management from official FAA records

Ownership: Privately-owned
Owner: ANTHONY & BARBARA WILLIAMS
13721 FRANK WILLIAMS RD
MOBILE, AL 36608
Phone 251-649-5033
Manager: ANTHONY & BARBARA WILLIAMS
13721 FRANK WILLIAMS RD
MOBILE, AL 36608
Phone 251-649-5033

Airport Operational Statistics

Aircraft based on the field: 7
Single engine airplanes: 7
    
Aircraft operations: avg 68/month *
59% transient general aviation
41% local general aviation
* for 12-month period ending 25 January 1999

Additional Remarks

FOR CD CTC MOBILE APCH AT 251-662-6236, WHEN APCH CLSD CTC HOUSTON ARTCC AT 281-230-5622.

Instrument Procedures

There are no published instrument procedures at 62AL.

Some nearby airports with instrument procedures:

KMOB - Mobile Regional Airport (7 nm E)
2R5 - St Elmo Airport (12 nm SE)
KPQL - Trent Lott International Airport (16 nm SW)
KBFM - Mobile International Airport (16 nm E)
KCQF - H L Sonny Callahan Airport (29 nm SE)
 
Loc | Ops | Rwys | IFR | FBO | Links
Com | Nav | Svcs | Stats | Notes
Area around 62AL (Skywest Airpark)
 
Road maps at: MapQuest Bing Google
 
Aerial photo
No photo
 
Sectional chart

 
Airport distance calculator
Flying to Skywest Airpark? Find the distance to fly.

From to 62AL

Sunrise and sunset
Times for 07-Oct-2022
 Local
(UTC-5)
 Zulu
(UTC)
Morning civil twilight06:2811:28
Sunrise06:5211:52
Sunset18:3123:31
Evening civil twilight18:5523:55

Current date and time
Zulu (UTC)  07-Oct-2022 17:03:44
Local (UTC-5)  07-Oct-2022 12:03:44
 
METAR
KMOB 
6nm E 
071256Z 00000KT 7SM FEW002 SCT250 18/17 A3018 RMK SLP216 T01780167
KPQL 
15nm SW 
071653Z 01004KT 10SM CLR 30/13 A3018 RMK AO2 SLP220 T03000133
KBFM 
16nm E 
071653Z 06006KT 10SM CLR 28/13 A3019 RMK AO2 SLP224 T02830133
TAF
KMOB 
6nm E 
071137Z 0712/0812 00000KT 2SM BR OVC002 FM071300 VRB03KT P6SM SKC FM072000 33005KT P6SM SKC FM080300 32003KT P6SM SKC
KBFM 
16nm E 
071137Z 0712/0812 00000KT P6SM SKC FM072000 09005KT P6SM SKC FM080300 31003KT P6SM SKC
NOTAMs
Click for the latest NOTAMs
NOTAMs are issued by the DoD/FAA and will open in a separate window not controlled by AirNav.

 

 
 

Would you like to see your business listed on this page?

 If your business provides an interesting product or service to pilots, flight crews, aircraft, or users of the Skywest Airpark, you should consider listing it here.  To start the listing process, click on the button below
 
Add a business
 

Other Pages about Skywest Airpark

Update a link
 
Copyright © AirNav, LLC. All rights reserved. Privacy Policy  Contact